GSAT0101 (GALILEO-PFM) 1 37846U 11060A 26037.62648020 -.00000104 00000+0 00000+0 0 9996 2 37846 57.0373 345.3049 0003862 346.6289 13.3555 1.70475735 88894 GSAT0102 (GALILEO-FM2) 1 37847U 11060B 26037.26320962 -.00000105 00000+0 00000+0 0 9990 2 37847 57.0382 345.3151 0005477 331.3099 211.2392 1.70475954 88894 GSAT0103 (GALILEO-FM3) 1 38857U 12055A 26037.08030623 -.00000022 00000+0 00000+0 0 9997 2 38857 55.7224 105.1447 0004578 279.9147 80.0979 1.70473402 82778 GSAT0201 (GALILEO 5) 1 40128U 14050A 26036.90444306 -.00000049 00000+0 00000+0 0 9994 2 40128 49.0146 278.8094 1654002 174.3354 187.8314 1.85519954 75881 GSAT0202 (GALILEO 6) 1 40129U 14050B 26033.92657438 -.00000031 00000+0 00000+0 0 9997 2 40129 49.0338 278.0153 1654466 174.9621 186.9780 1.85520617 77999 GSAT0203 (GALILEO 7) 1 40544U 15017A 26033.29838513 -.00000105 00000+0 00000+0 0 9999 2 40544 56.8319 345.2751 0005828 287.3732 72.5478 1.70475649 66900 GSAT0204 (GALILEO 8) 1 40545U 15017B 26037.07349362 -.00000105 00000+0 00000+0 0 9999 2 40545 56.8372 345.1904 0004910 282.4502 77.4887 1.70475438 30018 GSAT0206 (GALILEO 10) 1 40890U 15045B 26036.47591748 .00000050 00000+0 00000+0 0 9991 2 40890 54.9874 225.2385 0004260 48.8489 311.1809 1.70473585 64799 GSAT0209 (GALILEO 12) 1 41174U 15079A 26036.64404929 -.00000021 00000+0 00000+0 0 9996 2 41174 55.7427 104.8716 0003937 324.6867 35.3527 1.70474614 62539 GSAT0208 (GALILEO 11) 1 41175U 15079B 26033.93133139 -.00000016 00000+0 00000+0 0 9992 2 41175 55.7396 104.9432 0003195 326.3973 33.6454 1.70474472 62907 GSAT0211 (GALILEO 14) 1 41549U 16030A 26036.40168744 .00000050 00000+0 00000+0 0 9997 2 41549 55.1371 225.3167 0004052 27.1289 332.8857 1.70473632 60424 GSAT0210 (GALILEO 13) 1 41550U 16030B 26036.07240575 .00000049 00000+0 00000+0 0 9993 2 41550 55.1367 225.3239 0000802 176.9325 183.0619 1.70473865 60413 GSAT0207 (GALILEO 15) 1 41859U 16069A 26038.11049346 -.00000025 00000+0 00000+0 0 9992 2 41859 55.4134 104.6869 0004275 308.1182 51.9056 1.70474539 57183 GSAT0212 (GALILEO 16) 1 41860U 16069B 26037.37750061 -.00000023 00000+0 00000+0 0 9992 2 41860 55.4107 104.7025 0002930 340.9466 19.1064 1.70474759 57421 GSAT0213 (GALILEO 17) 1 41861U 16069C 26035.39866029 -.00000018 00000+0 00000+0 0 9999 2 41861 55.4119 104.7651 0004488 288.0305 71.9865 1.70474999 57256 GSAT0214 (GALILEO 18) 1 41862U 16069D 26036.71785895 -.00000021 00000+0 00000+0 0 9992 2 41862 55.4111 104.7214 0003424 292.1014 67.9274 1.70474934 57401 GSAT0215 (GALILEO 19) 1 43055U 17079A 26036.62135122 .00000051 00000+0 00000+0 0 9994 2 43055 55.1151 225.1242 0000981 26.6979 333.2999 1.70474370 50749 GSAT0216 (GALILEO 20) 1 43056U 17079B 26035.73943147 .00000048 00000+0 00000+0 0 9996 2 43056 55.1142 225.1486 0001824 334.9584 25.0270 1.70474441 50741 GSAT0217 (GALILEO 21) 1 43057U 17079C 26037.13333391 .00000054 00000+0 00000+0 0 9994 2 43057 55.1138 225.1079 0002393 3.7865 356.2080 1.70474389 50750 GSAT0218 (GALILEO 22) 1 43058U 17079D 26037.35337847 .00000055 00000+0 00000+0 0 9990 2 43058 55.1136 225.0995 0001924 318.2787 41.6994 1.70474401 50788 GSAT0221 (GALILEO 25) 1 43564U 18060A 26031.97709630 -.00000102 00000+0 00000+0 0 9992 2 43564 57.2140 345.4613 0006328 298.4870 61.4322 1.70475392 46844 GSAT0222 (GALILEO 26) 1 43565U 18060B 26033.36969793 -.00000105 00000+0 00000+0 0 9999 2 43565 57.2172 345.4270 0005205 279.5246 80.4010 1.70475143 46916 GSAT0219 (GALILEO 23) 1 43566U 18060C 26037.69689976 -.00000104 00000+0 00000+0 0 9991 2 43566 57.2150 345.3119 0005568 306.5565 53.3870 1.70475517 46964 GSAT0220 (GALILEO 24) 1 43567U 18060D 26034.98489973 -.00000105 00000+0 00000+0 0 9997 2 43567 57.2155 345.3844 0005800 302.4240 57.5081 1.70475444 46902 GSAT0223 (GALILEO 27) 1 49809U 21116A 26035.12723103 -.00000105 00000+0 00000+0 0 9991 2 49809 57.2047 345.2708 0003356 273.0799 264.9782 1.70475489 25910 GSAT0224 (GALILEO 28) 1 49810U 21116B 26034.35738597 -.00000105 00000+0 00000+0 0 9990 2 49810 57.2056 345.2904 0002874 282.8651 255.3242 1.70475473 25928 GSAT0225 (GALILEO 29) 1 59598U 24079A 26035.24721819 -.00000018 00000+0 00000+0 0 9996 2 59598 55.0317 104.7965 0002163 235.2021 121.8731 1.70475003 11044 GSAT0227 (GALILEO 30) 1 59600U 24079C 26037.19523063 -.00000023 00000+0 00000+0 0 9993 2 59600 55.0277 104.7408 0001032 117.1928 242.8816 1.70475017 11136 GSAT0232 (GALILEO 32) 1 61182U 24167A 26010.80494384 .00000067 00000+0 00000+0 0 9998 2 61182 55.2321 225.6317 0001771 188.3607 9.6826 1.70473658 8193 GSAT0226 (GALILEO 31) 1 61183U 24167B 26038.16730109 .00000061 00000+0 00000+0 0 9990 2 61183 55.2249 224.8848 0001671 112.4660 71.1614 1.70474091 8639